Location: Newark
(13.6797°N, 8.5297°E)
Time: 12:25:16
(UTC+00:00)

Altair - Pass Details

Date: 25 January 2020
Orbit: 1502 x 1682 km, 47.2° (Epoch: 19 February)

Event Time Altitude Azimuth Distance (km) Brightness Sun altitude
Rises 18:20:46 0° 282° (WNW) 4,808 11.3 -14.3°
Reaches altitude 10° 18:26:51 10° 253° (WSW) 3,774 10.9 -15.7°
Maximum altitude 18:29:57 12° 234° (SW) 3,601 10.5 -16.4°
Drops below altitude 10° 18:33:00 10° 214° (SW) 3,727 10.2 -17.1°
Sets 18:38:59 0° 185° (S) 4,669 10.3 -18.5°
